Flag for France Weather past 2 weeks in Bourges, France

Now
41 °F

Scattered clouds.


Feels Like: 37 °F
Forecast: 31 / 44 °F
Wind: 6 mph from Northwest

Location: Bourges

Current Time: Jan 25, 2015 at 4:11:22 PM

Latest Report: Jan 25, 2015 at 3:00 PM


Visibility: 9 mi

Pressure: 30.50 "Hg

Humidity: 81%

Dew point: 36 °F

Location of BourgesLocation

Historic Weather in Bourges — Graph

°F

Bourges temperature yesterday

Maximum temperature yesterday: 39 °F (at 5:00 PM)
Minimum temperature yesterday: 26 °F (at 4:00 AM)
Average temperature yesterday: 32 °F

Past Weeks' High & Low Weather Summary

 TemperatureHumidityPressure
High54 °F (Jan 15, 2:00 PM)100% (Jan 22, 5:00 AM)30.56 "Hg (Jan 22, 5:00 AM)
Low26 °F (Jan 24, 4:00 AM)51% (Jan 12, 4:00 PM)29.70 "Hg (Jan 15, 3:00 PM)
Average38 °F86%30.08 "Hg
* Reported Jan 10 2:00 PM — Jan 25 2:00 PM, Bourges, Weather by CustomWeather, © 2014

Note: Actual official high and low records may vary slightly from our data, if they occured in-between our weather recording intervals... More about our weather records

Advertising

Bourges weather history for previous 24 hours

 ConditionsComfort  
Time TempWeatherWind HumidityBarometerVisibility
2:00 PM
Jan 25
39 °FPartly sunny.5 mph86%30.51 "Hg9 mi
1:00 PM36 °FOvercast.6 mph91%30.53 "Hg7 mi
12:00 PM35 °FOvercast.3 mph93%30.56 "Hg7 mi
11:00 AM32 °FPartly sunny.5 mph93%30.56 "Hg6 mi
10:00 AM31 °FOvercast.5 mph96%30.56 "Hg6 mi
9:00 AM30 °FOvercast.3 mph97%30.55 "Hg6 mi
8:00 AM29 °FOvercast.2 mph97%30.55 "Hg5 mi
7:00 AM30 °FOvercast.5 mph97%30.54 "Hg6 mi
6:00 AM30 °FOvercast.6 mph97%30.53 "Hg6 mi
5:00 AM30 °FChilly.6 mph96%30.51 "Hg6 mi
4:00 AM31 °FChilly.6 mph95%30.50 "Hg7 mi
3:00 AM32 °FOvercast.5 mph94%30.50 "Hg8 mi
2:00 AM33 °FOvercast.5 mph92%30.50 "Hg12 mi
1:00 AM33 °FOvercast.5 mph91%30.50 "Hg12 mi
12:00 AM33 °FOvercast.5 mph92%30.49 "Hg12 mi
11:00 PM
Jan 24
33 °FPassing clouds.5 mph92%30.48 "Hg12 mi
10:00 PM33 °FChilly.3 mph91%30.47 "Hg12 mi
9:00 PM34 °FChilly.5 mph91%30.45 "Hg11 mi
8:00 PM35 °FChilly.5 mph91%30.42 "Hg12 mi
7:00 PM37 °FChilly.6 mph89%30.40 "Hg12 mi
6:00 PM38 °FChilly.5 mph92%30.37 "Hg7 mi
5:00 PM39 °FLow clouds.2 mph90%30.34 "Hg5 mi
4:00 PM38 °FLow clouds.6 mph92%30.32 "Hg4 mi
Weather by CustomWeather, © 2014

See weather overviewHow to use our weather pages